GJAKE HKJK-HKMO

Flight info

Callsign GJAKE
Flight time 0h 40m
Altitude 33000
Route ATUDU1D UVOVA UQ135 NEREV NEREV3A
Aircraft CL60/M-SADE3FGHIJ3J4J7P2RWXY/HB1D1

Departure

Time 2026-04-26 12:24
Airport Jomo Kenyatta International Airport (HKJK)

Arrival

Time 2026-04-26 13:04
Airport Moi International Airport (HKMO)
Time Latitude Longitude Altitude Speed Heading
2026-04-26 12:01 -1.31559 36.92656 5313 ft 0 kts 58°
2026-04-26 12:19 -1.31551 36.92673 5310 ft 2 kts 68°
2026-04-26 12:19 -1.31551 36.92725 5307 ft 12 kts 143°
2026-04-26 12:19 -1.31634 36.92781 5308 ft 14 kts 144°
2026-04-26 12:19 -1.31680 36.92801 5309 ft 6 kts 212°
2026-04-26 12:20 -1.31711 36.92762 5311 ft 6 kts 234°
2026-04-26 12:20 -1.31752 36.92706 5314 ft 16 kts 233°
2026-04-26 12:20 -1.31828 36.92604 5316 ft 19 kts 234°
2026-04-26 12:20 -1.31917 36.92482 5316 ft 25 kts 234°
2026-04-26 12:21 -1.32026 36.92332 5315 ft 26 kts 233°
2026-04-26 12:21 -1.32135 36.92184 5314 ft 25 kts 234°
2026-04-26 12:21 -1.32233 36.92051 5313 ft 16 kts 235°
2026-04-26 12:21 -1.32305 36.91952 5313 ft 18 kts 233°
2026-04-26 12:22 -1.32386 36.91843 5315 ft 20 kts 234°
2026-04-26 12:22 -1.32471 36.91725 5320 ft 20 kts 234°
2026-04-26 12:22 -1.32556 36.91610 5326 ft 18 kts 234°
2026-04-26 12:22 -1.32623 36.91571 5328 ft 15 kts 156°
2026-04-26 12:23 -1.32724 36.91646 5326 ft 13 kts 128°
2026-04-26 12:23 -1.32673 36.91753 5323 ft 37 kts 53°
2026-04-26 12:23 -1.32317 36.92239 5314 ft 132 kts 53°
2026-04-26 12:23 -1.31655 36.93137 5632 ft 176 kts 55°
2026-04-26 12:24 -1.30945 36.94231 6181 ft 196 kts 70°
2026-04-26 12:24 -1.30675 36.95610 6770 ft 210 kts 84°
2026-04-26 12:24 -1.30496 36.97094 7364 ft 221 kts 84°
2026-04-26 12:25 -1.30105 37.00214 8517 ft 229 kts 83°
2026-04-26 12:25 -1.29884 37.01842 9095 ft 245 kts 82°
2026-04-26 12:25 -1.29618 37.03623 9729 ft 275 kts 82°
2026-04-26 12:25 -1.29318 37.05610 10296 ft 297 kts 81°
2026-04-26 12:26 -1.28997 37.07724 10870 ft 311 kts 81°
2026-04-26 12:26 -1.28663 37.09920 11430 ft 333 kts 81°
2026-04-26 12:26 -1.28348 37.12297 12018 ft 344 kts 86°
2026-04-26 12:26 -1.28595 37.14679 12598 ft 351 kts 104°
2026-04-26 12:27 -1.29657 37.16937 13188 ft 357 kts 124°
2026-04-26 12:27 -1.31345 37.18779 13755 ft 363 kts 133°
2026-04-26 12:27 -1.33186 37.20584 14320 ft 364 kts 133°
2026-04-26 12:27 -1.34993 37.22366 14889 ft 364 kts 133°
2026-04-26 12:28 -1.36835 37.24184 15468 ft 368 kts 133°
2026-04-26 12:28 -1.38657 37.25981 16043 ft 372 kts 133°
2026-04-26 12:28 -1.40523 37.27822 16643 ft 375 kts 133°
2026-04-26 12:28 -1.42406 37.29681 17273 ft 378 kts 133°
2026-04-26 12:29 -1.44302 37.31552 17932 ft 382 kts 133°
2026-04-26 12:29 -1.46208 37.33433 18586 ft 386 kts 133°
2026-04-26 12:29 -1.50107 37.37284 19904 ft 396 kts 133°
2026-04-26 12:30 -1.52102 37.39254 20561 ft 401 kts 133°
2026-04-26 12:30 -1.54095 37.41222 21216 ft 406 kts 133°
2026-04-26 12:30 -1.56161 37.43263 21885 ft 411 kts 133°
2026-04-26 12:31 -1.60309 37.47360 23199 ft 420 kts 133°
2026-04-26 12:31 -1.62403 37.49429 23852 ft 424 kts 133°
2026-04-26 12:31 -1.64527 37.51527 24467 ft 429 kts 132°
2026-04-26 12:31 -1.66684 37.53658 25011 ft 435 kts 133°
2026-04-26 12:32 -1.68861 37.55809 25538 ft 440 kts 133°
2026-04-26 12:32 -1.71082 37.58003 26071 ft 444 kts 133°
2026-04-26 12:32 -1.75556 37.62423 27132 ft 451 kts 133°
2026-04-26 12:33 -1.77822 37.64664 27663 ft 453 kts 132°
2026-04-26 12:33 -1.80090 37.66924 28185 ft 456 kts 133°
2026-04-26 12:33 -1.82333 37.69162 28712 ft 457 kts 132°
2026-04-26 12:33 -1.84621 37.71443 29246 ft 459 kts 132°
2026-04-26 12:34 -1.86880 37.73696 29711 ft 462 kts 133°
2026-04-26 12:34 -1.89171 37.75982 30143 ft 465 kts 132°
2026-04-26 12:34 -1.91497 37.78302 30546 ft 467 kts 132°
2026-04-26 12:34 -1.93801 37.80601 30928 ft 470 kts 132°
2026-04-26 12:35 -1.96175 37.82968 31301 ft 471 kts 132°
2026-04-26 12:35 -1.98496 37.85284 31654 ft 473 kts 132°
2026-04-26 12:35 -2.00854 37.87636 31989 ft 474 kts 133°
2026-04-26 12:35 -2.03255 37.90032 32269 ft 476 kts 133°
2026-04-26 12:36 -2.05629 37.92403 32510 ft 478 kts 133°
2026-04-26 12:36 -2.08026 37.94796 32736 ft 480 kts 133°
2026-04-26 12:36 -2.10491 37.97256 32959 ft 482 kts 133°
2026-04-26 12:37 -2.15343 38.02100 33025 ft 489 kts 133°
2026-04-26 12:37 -2.20243 38.06989 33025 ft 486 kts 132°
2026-04-26 12:38 -2.25087 38.11823 33017 ft 482 kts 133°
2026-04-26 12:38 -2.29899 38.16625 33020 ft 481 kts 133°
2026-04-26 12:39 -2.34646 38.21365 33013 ft 480 kts 133°
2026-04-26 12:39 -2.39455 38.26165 33005 ft 481 kts 132°
2026-04-26 12:40 -2.44209 38.30911 32989 ft 482 kts 133°
2026-04-26 12:40 -2.48994 38.35689 32974 ft 482 kts 133°
2026-04-26 12:41 -2.53764 38.40452 32971 ft 481 kts 133°
2026-04-26 12:41 -2.58544 38.45225 32977 ft 480 kts 133°
2026-04-26 12:42 -2.63307 38.49981 32972 ft 480 kts 133°
2026-04-26 12:42 -2.68044 38.54711 32969 ft 475 kts 132°
2026-04-26 12:43 -2.72700 38.59361 32963 ft 466 kts 133°
2026-04-26 12:43 -2.77306 38.63962 32685 ft 465 kts 132°
2026-04-26 12:43 -2.79650 38.66304 32149 ft 462 kts 133°
2026-04-26 12:44 -2.81901 38.68552 31577 ft 455 kts 132°
2026-04-26 12:44 -2.84141 38.70789 30979 ft 451 kts 132°
2026-04-26 12:44 -2.86372 38.73018 30383 ft 445 kts 132°
2026-04-26 12:44 -2.88543 38.75187 29791 ft 442 kts 132°
2026-04-26 12:45 -2.90748 38.77391 29194 ft 440 kts 132°
2026-04-26 12:45 -2.92909 38.79551 28600 ft 438 kts 132°
2026-04-26 12:45 -2.95079 38.81720 28020 ft 436 kts 132°
2026-04-26 12:45 -2.97215 38.83854 27431 ft 433 kts 133°
2026-04-26 12:46 -2.99386 38.86024 26848 ft 429 kts 133°
2026-04-26 12:46 -3.01485 38.88123 26275 ft 426 kts 133°
2026-04-26 12:46 -3.03605 38.90242 25713 ft 422 kts 133°
2026-04-26 12:46 -3.05677 38.92313 25156 ft 418 kts 133°
2026-04-26 12:47 -3.07750 38.94386 24588 ft 415 kts 133°
2026-04-26 12:47 -3.09805 38.96440 24040 ft 411 kts 133°
2026-04-26 12:47 -3.11813 38.98448 23505 ft 407 kts 133°
2026-04-26 12:47 -3.13835 39.00470 22958 ft 404 kts 133°
2026-04-26 12:48 -3.15825 39.02460 22422 ft 400 kts 134°
2026-04-26 12:48 -3.17790 39.04425 21906 ft 397 kts 134°
2026-04-26 12:48 -3.19750 39.06385 21378 ft 394 kts 134°
2026-04-26 12:48 -3.21707 39.08343 20846 ft 390 kts 134°
2026-04-26 12:49 -3.23614 39.10250 20333 ft 387 kts 134°
2026-04-26 12:49 -3.25548 39.12152 19823 ft 383 kts 135°
2026-04-26 12:49 -3.27494 39.14013 19330 ft 380 kts 135°
2026-04-26 12:49 -3.29403 39.15840 18829 ft 377 kts 135°
2026-04-26 12:50 -3.31306 39.17661 18329 ft 373 kts 135°
2026-04-26 12:50 -3.33163 39.19439 17843 ft 370 kts 135°
2026-04-26 12:50 -3.35046 39.21242 17348 ft 367 kts 135°
2026-04-26 12:50 -3.36897 39.23015 16857 ft 364 kts 135°
2026-04-26 12:51 -3.38738 39.24777 16369 ft 361 kts 135°
2026-04-26 12:51 -3.40573 39.26534 15878 ft 358 kts 135°
2026-04-26 12:51 -3.42386 39.28270 15423 ft 356 kts 135°
2026-04-26 12:51 -3.44206 39.30014 14921 ft 354 kts 136°
2026-04-26 12:52 -3.45979 39.31712 14462 ft 347 kts 135°
2026-04-26 12:52 -3.47711 39.33372 14009 ft 341 kts 136°
2026-04-26 12:52 -3.49417 39.35007 13563 ft 337 kts 137°
2026-04-26 12:52 -3.51115 39.36635 13101 ft 332 kts 137°
2026-04-26 12:53 -3.54443 39.39825 12235 ft 322 kts 137°
2026-04-26 12:53 -3.56072 39.41387 11786 ft 316 kts 136°
2026-04-26 12:53 -3.57618 39.42868 11373 ft 309 kts 137°
2026-04-26 12:54 -3.59174 39.44360 10976 ft 301 kts 136°
2026-04-26 12:54 -3.60671 39.45795 10606 ft 296 kts 136°
2026-04-26 12:54 -3.62162 39.47225 10138 ft 290 kts 136°
2026-04-26 12:54 -3.63606 39.48610 9839 ft 280 kts 136°
2026-04-26 12:55 -3.65036 39.49980 9419 ft 279 kts 136°
2026-04-26 12:55 -3.66433 39.51320 9061 ft 276 kts 136°
2026-04-26 12:55 -3.67814 39.52644 8689 ft 274 kts 136°
2026-04-26 12:55 -3.69194 39.53968 8318 ft 271 kts 136°
2026-04-26 12:56 -3.70576 39.55293 7951 ft 267 kts 136°
2026-04-26 12:56 -3.71918 39.56580 7600 ft 264 kts 136°
2026-04-26 12:56 -3.73253 39.57860 7241 ft 260 kts 136°
2026-04-26 12:56 -3.74539 39.59094 6888 ft 253 kts 136°
2026-04-26 12:57 -3.75800 39.60303 6569 ft 244 kts 136°
2026-04-26 12:57 -3.77025 39.61478 6237 ft 237 kts 137°
2026-04-26 12:57 -3.78131 39.62698 5883 ft 232 kts 123°
2026-04-26 12:58 -3.79672 39.65414 5127 ft 212 kts 121°
2026-04-26 12:58 -3.80380 39.66675 4812 ft 200 kts 121°
2026-04-26 12:58 -3.81050 39.67870 4618 ft 193 kts 121°
2026-04-26 12:58 -3.81741 39.69063 4414 ft 195 kts 126°
2026-04-26 12:59 -3.82766 39.69938 4186 ft 193 kts 155°
2026-04-26 12:59 -3.84095 39.70084 3926 ft 196 kts 192°
2026-04-26 12:59 -3.85344 39.69521 3631 ft 196 kts 205°
2026-04-26 12:59 -3.86553 39.68876 3353 ft 194 kts 205°
2026-04-26 13:00 -3.87742 39.68230 3107 ft 189 kts 205°
2026-04-26 13:00 -3.88883 39.67596 2868 ft 184 kts 206°
2026-04-26 13:00 -3.89995 39.66977 2628 ft 175 kts 206°
2026-04-26 13:00 -3.91030 39.66396 2423 ft 163 kts 206°
2026-04-26 13:01 -3.92015 39.65845 2206 ft 159 kts 205°
2026-04-26 13:01 -3.92991 39.65302 2005 ft 158 kts 206°
2026-04-26 13:01 -3.93959 39.64761 1798 ft 157 kts 206°
2026-04-26 13:01 -3.94916 39.64225 1607 ft 153 kts 206°
2026-04-26 13:02 -3.95777 39.63737 1446 ft 132 kts 206°
2026-04-26 13:02 -3.96571 39.63290 1247 ft 127 kts 205°
2026-04-26 13:02 -3.97334 39.62865 1080 ft 122 kts 205°
2026-04-26 13:02 -3.98086 39.62448 931 ft 123 kts 205°
2026-04-26 13:03 -3.98834 39.62031 761 ft 121 kts 205°
2026-04-26 13:03 -3.99582 39.61612 613 ft 121 kts 205°
2026-04-26 13:03 -4.00329 39.61194 473 ft 123 kts 206°
2026-04-26 13:03 -4.01075 39.60775 299 ft 121 kts 205°
2026-04-26 13:04 -4.01793 39.60375 202 ft 107 kts 208°
2026-04-26 13:04 -4.02384 39.60044 199 ft 85 kts 208°
2026-04-26 13:04 -4.02731 39.59849 201 ft 32 kts 211°
2026-04-26 13:04 -4.02932 39.59736 201 ft 32 kts 209°
2026-04-26 13:05 -4.03133 39.59626 201 ft 32 kts 210°
2026-04-26 13:05 -4.03291 39.59547 200 ft 12 kts 176°
2026-04-26 13:05 -4.03327 39.59616 201 ft 11 kts 91°
2026-04-26 13:05 -4.03327 39.59679 200 ft 3 kts 89°
2026-04-26 13:06 -4.03327 39.59685 200 ft 4 kts 89°
2026-04-26 13:06 -4.03287 39.59737 200 ft 11 kts 30°
2026-04-26 13:06 -4.03206 39.59782 202 ft 14 kts 29°
2026-04-26 13:06 -4.03103 39.59839 202 ft 18 kts 29°
2026-04-26 13:07 -4.02978 39.59909 204 ft 21 kts 28°
2026-04-26 13:07 -4.02843 39.59986 204 ft 22 kts 29°
2026-04-26 13:07 -4.02745 39.60041 202 ft 10 kts 50°
2026-04-26 13:07 -4.02762 39.60087 204 ft 7 kts 119°
2026-04-26 13:08 -4.02776 39.60131 206 ft 5 kts 41°
2026-04-26 13:08 -4.02773 39.60165 206 ft 5 kts 118°
2026-04-26 13:08 -4.02779 39.60175 206 ft 0 kts 119°